Domov               UVHVVR             MKGP            O straneh              
ZDRAVSTVENO VARSTVO RASTLIN
  MREŽA AGROMET. POSTAJ
 ► PROGNOSTIČNA OBVESTILA
AGROMETEOROLOŠKI PODATKI -
ARSO
OBVLADOVANJE TVEGANJ ZARADI
NEUGODNIH VREMENSKIH RAZMER
  ► NARAVNE NESREČE
  ► SUŠA/MOČA
  ► NAMAKANJE
  ► ŽLED (gozdarstvo)
KARTOGRAFSKI PRIKAZI
SPLETNE POVEZAVE
PROJEKTI IN PUBLIKACIJE

AGROMETEOROLOŠKA MREŽA: VREMENSKE POSTAJE IN FENOLOŠKA OPAZOVANJA

Pregled podatkov za lokacijo Maribor - BTŠ, meteorološka postaja 35810

Pregled senzorjev na lokaciji

ID Ime Zadnja
vrednost
Datum
zadnje
spremembe
Tip
senzorja
1721 Temperatura 2 m (°C) 6,3 °C 11.12.2017 10:00 Generic -40 - +60 °C
1722 Relativna vlaga 2 m (% RH) 81,76 % RH 11.12.2017 10:00 Generic 0 - 100 %
1723 Padavine (mm) 0 mm 11.12.2017 10:00 Generic 0.2 mm

Pregled podatkov zadnjih 24 ur

Zap.
št.
Datum in čas Maribor - BTŠ
Padavine Relativna
vlaga
2
m
Temperatura
2
m
0 11.12.2017 10:00 0 81,76 6,3
1 11.12.2017 09:30 0,2 86,2 5,13
2 11.12.2017 09:00 0,2 88,77 4,3
3 11.12.2017 08:30 0,2 89,16 4,15
4 11.12.2017 08:00 0,2 93,33 3,47
5 11.12.2017 07:30 0,4 94,09 3,57
6 11.12.2017 07:00 0,4 95,31 3,49
7 11.12.2017 06:30 0,2 95,7 3,03
8 11.12.2017 06:00 0,4 94,09 2,83
9 11.12.2017 05:30 0,4 91,06 3,22
10 11.12.2017 05:00 0,4 91,26 2,81
11 11.12.2017 04:30 0,2 91,14 2,59
12 11.12.2017 04:00 0,6 89,5 2,86
13 11.12.2017 03:30 0,4 90,79 2,47
14 11.12.2017 03:00 0,6 90,4 2,42
15 11.12.2017 02:30 0,4 90,21 2,27
16 11.12.2017 02:00 0,8 88,74 2,49
17 11.12.2017 01:30 0,6 91,01 2,12
18 11.12.2017 01:00 0,8 91,6 2,1
19 11.12.2017 00:30 0,6 92,28 1,95
20 11.12.2017 00:00 1 88,4 2,15
21 10.12.2017 23:30 0,8 85,62 2,37
22 10.12.2017 23:00 0,8 82,15 2,86
23 10.12.2017 22:30 1,2 79,56 3,1
24 10.12.2017 22:00 1 80,98 2,71
25 10.12.2017 21:30 0,8 79,24 2,81
26 10.12.2017 21:00 1 76,24 3,15
27 10.12.2017 20:30 0,8 75,82 2,98
28 10.12.2017 20:00 0,6 74,68 2,81
29 10.12.2017 19:30 0,4 74,26 2,71
30 10.12.2017 19:00 0,8 76,02 2,34
31 10.12.2017 18:30 0,2 76,87 2,12
32 10.12.2017 18:00 0,4 74,36 2,32
33 10.12.2017 17:30 0 72,84 2,42
34 10.12.2017 17:00 0 71,31 2,42
35 10.12.2017 16:30 0 67,94 2,54
36 10.12.2017 16:00 0 66,11 2,64
37 10.12.2017 15:30 0 60,54 3,03
38 10.12.2017 15:00 0 60,93 2,78
39 10.12.2017 14:30 0 69,01 1,73
40 10.12.2017 14:00 0 73,85 0,98
41 10.12.2017 13:30 0 74,77 0,63
42 10.12.2017 13:00 0 77,73 -0,46
43 10.12.2017 12:30 0 75,41 -0,1
44 10.12.2017 12:00 0 76,56 -0,51
45 10.12.2017 11:30 0 75,82 -0,73
46 10.12.2017 11:00 0 73,65 -1,05
© 2011 Ministrstvo za kmetijstvo, gozdarstvo in prehrano. Vse pravice pridržane.